Location: Oslo
(59.9170°N, 10.7500°E)
Time: 09:15:44
(UTC+02:00)

ISS - Visible Passes

Search period start: 29 March 2017 00:00
Search period end: 08 April 2017 00:00
Orbit: 399 x 409 km, 51.6° (Epoch: 29 March)

Date Brightness Start Highest point End Pass type
(mag) Time Alt. Az. Time Alt. Az. Time Alt. Az.
30 Mar -1.2 22:27:45 10° SW 22:28:00 11° SSW 22:28:00 11° SSW visible
31 Mar -2.0 21:35:50 10° SSW 21:37:56 16° SSE 21:38:03 16° SSE visible
01 Apr -1.7 20:44:08 10° S 20:45:47 13° SSE 20:47:27 10° SE visible
01 Apr -1.9 22:18:59 10° SW 22:20:37 18° SSW 22:20:37 18° SSW visible
02 Apr -2.1 21:26:52 10° SW 21:29:15 19° S 21:30:25 16° SE visible
02 Apr -1.2 23:02:42 10° SW 23:03:04 12° SW 23:03:04 12° SW visible
03 Apr -2.1 22:10:21 10° SW 22:12:45 19° S 22:12:46 19° S visible
04 Apr -2.1 21:18:05 10° SW 21:20:31 20° S 21:22:25 13° SE visible
04 Apr -1.3 22:54:22 10° SW 22:55:04 12° SW 22:55:04 12° SW visible
05 Apr -1.9 22:01:49 10° SW 22:04:00 17° SSW 22:04:40 16° S visible
06 Apr -1.9 21:09:24 10° SW 21:11:45 19° S 21:14:07 10° SE visible
06 Apr -1.2 22:46:46 10° SW 22:46:54 10° SW 22:46:54 10° SW visible
07 Apr -1.5 21:53:30 10° SW 21:55:09 13° SSW 21:56:28 11° S visible
